Regional Weather Roundup
Issued by NWS

Home | Current Version | Previous Version | Graphics & Text | Print | Product List | Glossary On
Versions: 1 2 3 4 5 6 7 8 9 10 11 12 13 14 15 16 17 18 19 20 21 22 23 24 25 26 27 28 29 30 31 32 33 34 35 36 37 38 39 40 41 42 43 44 45 46 47 48 49 50
000
ASUS45 KCYS 271810
RWRWY

WYOMING REGIONAL WEATHER ROUNDUP
NATIONAL WEATHER SERVICE CHEYENNE WY
1200 PM MDT WED AUG 27 2014

NOTE:  "FAIR" INDICATES FEW OR NO CLOUDS BELOW 12,000 FEET
WITH NO SIGNIFICANT WEATHER AND/OR OBSTRUCTIONS TO VISIBILITY.

WYZ001-271900-
YELLOWSTONE NATIONAL PARK

CITY           SKY/WX    TMP DP  RH WIND       PRES   REMARKS
LK YELLOWSTONE   N/A     55  46  71 SE5       30.37F
6HR MIN TEMP:  33; 6HR MAX TEMP:  56;

W YELLOWSTONE  NOT AVBL

$$
WYZ002>013-054>058-071-098>099-271900-
NORTHERN WYOMING

CITY           SKY/WX    TMP DP  RH WIND       PRES   REMARKS
JACKSON        MOSUNNY   64  46  52 CALM      30.29F
CODY           PTSUNNY   72  45  37 S7        30.17F
GREYBULL       PTSUNNY   75  48  38 SW5       30.11F
6HR MIN TEMP:  52; 6HR MAX TEMP:  76;

WORLAND        CLOUDY    67  50  54 CALM      30.14F
6HR MIN TEMP:  51; 6HR MAX TEMP:  67;

SHERIDAN       PTSUNNY   74  50  42 CALM      30.11F
6HR MIN TEMP:  46; 6HR MAX TEMP:  75;

BUFFALO        CLOUDY    71  49  45 S13       30.19S
6HR MIN TEMP:  53; 6HR MAX TEMP:  71;

GILLETTE       CLOUDY    76  56  49 E8        30.14F
6HR MIN TEMP:  51; 6HR MAX TEMP:  76;

HULETT         FAIR      73  55  53 MISG      30.15
NEWCASTLE      FAIR      77  50  38 MISG      30.13

$$
WYZ014>020-022>026-101>103-271900-
CENTRAL WYOMING

CITY           SKY/WX    TMP DP  RH WIND       PRES   REMARKS
BIG PINEY      CLOUDY    54  48  80 S8        30.34S
6HR MIN TEMP:  48; 6HR MAX TEMP:  54; 6HR PCP: TRACE;

PINEDALE       CLOUDY    54  46  76 SE5       30.35S
DUBOIS         FAIR      63  41  45 CALM      30.29S
LANDER         LGT RAIN  55  52  89 SW13      30.23F FOG
6HR MIN TEMP:  55; 6HR MAX TEMP:  61; 6HR PCP:  0.14;

RIVERTON       LGT RAIN  56  53  90 S12       30.24S
6HR MIN TEMP:  54; 6HR MAX TEMP:  60; 6HR PCP: TRACE;

CASPER         CLOUDY    58  56  93 W3        30.22S
6HR MIN TEMP:  55; 6HR MAX TEMP:  59; 6HR PCP:  0.12;

DOUGLAS        LGT RAIN  61  59  93 NW8       30.20S FOG
6HR MIN TEMP:  56; 6HR MAX TEMP:  62; 6HR PCP:  0.14;


$$
WYZ021-027>030-104>119-271900-
SOUTHERN WYOMING

CITY           SKY/WX    TMP DP  RH WIND       PRES   REMARKS
EVANSTON       CLOUDY    56  46  69 N3        30.34F
6HR MIN TEMP:  50; 6HR MAX TEMP:  57;

KEMMERER       DRIZZLE   52  50  93 CALM      30.36S
FORT BRIDGER   CLOUDY    56  52  88 N7        30.37S
ROCK SPRINGS   CLOUDY    56  49  77 N15       30.31F
6HR MIN TEMP:  50; 6HR MAX TEMP:  56; 6HR PCP:  0.01;

DIXON          CLOUDY    62  49  62 W3        30.31F
RAWLINS        CLOUDY    53  49  86 W13       30.29F
6HR MIN TEMP:  51; 6HR MAX TEMP:  57; 6HR PCP:  0.18;

SARATOGA       CLOUDY    57  46  67 CALM      30.30F
LARAMIE        PTSUNNY   65  47  52 W13       30.26F
6HR MIN TEMP:  51; 6HR MAX TEMP:  65; 6HR PCP:  0.03;

CHEYENNE       CLOUDY    63  50  62 NW7       30.22S
6HR MIN TEMP:  57; 6HR MAX TEMP:  65; 6HR PCP:  0.08;

TORRINGTON     HVY RAIN  57  57 100 E3        30.14F VSB 1
6HR MIN TEMP:  57; 6HR MAX TEMP:  67; 6HR PCP:  0.98;

PINE BLUFFS    RAIN      63  59  88 NW16G23   30.18S

$$


USA.gov is the U.S. government's official web portal to all federal, state and local government web resources and services.